www.pogodaiklimat.ru

Погода и климат >> Архив погоды >> Россия >> Якутия >> Верхоянск


АРХИВ ПОГОДЫ в Верхоянске

Время (UTC), дата Ветер
(напр.,м/с)
 
Видим.   Явления Облачность Т
(С)
Тd
(С)
f
(%)
Тe
(С)
Тes
(С)
Комфортность P
(гПа)
Po
(гПа)
Тmin
(С)
Tmax
(С)
R
(мм)
R24
(мм)
S
(см)
09 10.12 З 1 20 км ясно -43.8 -46.3 76 -49 -49 опасность
обморожения
1031.8 1011.0 -43.1
12 10.12 штиль 0 20 км ясно -43.8 -46.3 76 -44 -44 опасность
обморожения
1031.3 1010.5
15 10.12 З 1 20 км ясно -43.5 -46.3 74 -49 -49 опасность
обморожения
1030.6 1009.8
18 10.12 ЮЗ 1 20 км ясно -43.6 -46.3 74 -49 -49 опасность
обморожения
1030.1 1009.3
21 10.12 ЮЗ 1 20 км ясно -43.7 -46.3 75 -49 -49 опасность
обморожения
1029.7 1008.9 -44.0 10
00 11.12 ЮЗ 1 20 км ясно -43.8 -46.3 76 -49 -49 опасность
обморожения
1029.1 1008.3 -43.8
03 11.12 штиль 0 50 км 1/0
[Ci fib]
-43.7 -46.2 76 -44 -44 опасность
обморожения
1028.3 1007.5
06 11.12 штиль 0 20 км ясно -43.8 -46.3 76 -44 -44 опасность
обморожения
1027.4 1006.7
09 11.12 ЮЗ 1 20 км ясно -44.3 -46.8 76 -50 -50 опасность
обморожения
1026.8 1006.1 -43.7
12 11.12 З 1 20 км ясно -44.3 -46.8 76 -50 -50 опасность
обморожения
1026.3 1005.6
15 11.12 З 1 20 км ясно -44.8 -47.3 76 -51 -51 опасность
обморожения
1025.2 1004.4
18 11.12 ЮЗ 1 20 км ясно -45.2 -47.7 76 -51 -51 опасность
обморожения
1024.5 1003.7
21 11.12 З 1 20 км ясно -45.4 -47.8 77 -51 -51 опасность
обморожения
1023.5 1002.7 -45.4 10
00 12.12 ЮЗ 1 20 км ясно -45.6 -48.6 71 -51 -51 опасность
обморожения
1022.6 1001.8 -45.6
03 12.12 З 1 50 км ясно -45.2 -47.8 75 -51 -51 опасность
обморожения
1021.6 1000.9
06 12.12 ЮЗ 1 20 км ясно -45.0 -47.8 73 -51 -51 опасность
обморожения
1020.8 1000.1
09 12.12 З 1 20 км 8/0
[Ci fib]
-43.3 -46.3 72 -49 -49 опасность
обморожения
1020.3 999.8 -43.3
12 12.12 З 1 20 км 10/0
[Cs]
-43.0 -45.6 75 -49 -49 опасность
обморожения
1020.3 999.8
15 12.12 ЮЗ 1 20 км 10/0
[Cs]
-42.8 -45.6 74 -48 -48 опасность
обморожения
1020.5 1000.0
18 12.12 Ю 1 20 км 10/0
[Cs]
-42.5 -45.0 76 -48 -48 опасность
обморожения
1021.1 1000.7
21 12.12 штиль 0 20 км 10/0
[Cs]
-41.4 -44.4 72 -41 -41 опасность
обморожения
1021.8 1001.4 -43.3 10
00 13.12 штиль 0 10 км дым 6/0
[Ci fib]
-42.9 -45.6 75 -43 -43 опасность
обморожения
1022.3 1001.8 -43.0
03 13.12 штиль 0 20 км дым 4/0
[Ci fib]
-43.9 -46.3 77 -44 -44 опасность
обморожения
1021.8 1001.2
06 13.12 штиль 0 10 км дым 4/0
[Ci fib]
-44.4 -47.0 75 -44 -44 опасность
обморожения
1021.2 1000.6
09 13.12 Ю 1 10 км дым 3/0
[Ci fib]
-44.0 -47.0 72 -50 -50 опасность
обморожения
1020.6 1000.0 -42.9
12 13.12 штиль 0 10 км дым ясно -45.0 -47.8 73 -45 -45 опасность
обморожения
1019.9 999.2
15 13.12 штиль 0 10 км дым ясно -46.0 -48.6 75 -46 -46 опасность
обморожения
1018.1 997.4
18 13.12 штиль 0 20 км ясно -46.5 -49.6 70 -47 -47 опасность
обморожения
1016.7 995.9
21 13.12 штиль 0 20 км ясно -46.7 -49.6 72 -47 -47 опасность
обморожения
1014.9 994.1 -46.8 10
00 14.12 штиль 0 20 км ясно -46.4 -49.0 75 -46 -46 опасность
обморожения
1012.9 992.3 -46.9
03 14.12 ЮЗ 1 50 км 10/0
[Ac und]
-42.8 -45.5 75 -48 -48 опасность
обморожения
1010.6 990.3
06 14.12 ЮЗ 1 20 км 9/0
[Ac trans]
-39.9 -42.7 74 -45 -45 опасность
обморожения
1009.0 988.9
09 14.12 З 1 20 км 6/0
[Ac trans]
-39.9 -42.7 74 -45 -45 опасность
обморожения
1008.4 988.3 -39.9
12 14.12 ЮЗ 1 20 км 4/0
[Ac trans]
-40.1 -42.9 74 -45 -45 опасность
обморожения
1008.1 988.0
15 14.12 штиль 0 20 км 4/0
[Ac trans]
-40.2 -43.0 74 -40 -40 опасность
обморожения
1007.4 987.4
18 14.12 ЮЗ 1 20 км 10/0
[Ac und]
-38.7 -41.5 75 -44 -44 опасность
обморожения
1007.1 987.2
21 14.12 штиль 0 10 км слабый снег 10/0
[Ac trans Cs]
-36.8 -39.5 76 -37 -37 опасность
обморожения
1006.7 987.0 -40.2 0.0 10
00 15.12 штиль 0 10 км слабый снег 10/0
[Ac trans Cs]
-36.6 -39.4 75 -37 -37 опасность
обморожения
1006.2 986.5 -37.0
03 15.12 ЮЗ 1 20 км слабый снег 10/0
[As op]
-35.4 -38.4 74 -40 -40 опасность
обморожения
1005.5 986.0
06 15.12 штиль 0 10 км слабый снег 10/0
[As op]
-35.0 -38.0 74 -35 -35 опасность
обморожения
1005.5 986.0
09 15.12 штиль 0 10 км слабый снег 10/0
[Cs]
-38.7 -41.4 75 -39 -39 опасность
обморожения
1006.8 986.9 -35.0 0.2
12 15.12 штиль 0 20 км {снег} 10/0
[Cs]
-40.3 -43.3 73 -40 -40 опасность
обморожения
1007.2 987.2
15 15.12 штиль 0 20 км 10/0
[Cs]
-38.4 -41.4 73 -38 -38 опасность
обморожения
1006.8 987.0
18 15.12 штиль 0 10 км слабый снег 10/0
[As op]
-36.4 -39.4 74 -36 -36 опасность
обморожения
1006.0 986.4
21 15.12 штиль 0 10 км слабый снег 10/0
[As op]
-34.8 -37.7 75 -35 -35 опасность
обморожения
1005.5 986.0 -40.5 0.2 10
00 16.12 ЮЗ 1 10 км слабый снег 10/0
[Ac trans Cs]
-35.5 -37.7 80 -40 -40 опасность
обморожения
1005.5 985.9 -35.5
03 16.12 штиль 0 20 км слабый снег 10/0
[Ac trans Cs]
-33.2 -35.6 79 -33 -33 опасность
обморожения
1004.8 985.4
06 16.12 штиль 0 10 км слабый снег 10/0
[Ac trans Cs]
-36.9 -39.1 80 -37 -37 опасность
обморожения
1005.2 985.5
09 16.12 штиль 0 20 км {снег} 8/0
[Ci fib]
-37.3 -40.1 75 -37 -37 опасность
обморожения
1005.7 986.0 -33.1 0.2
12 16.12 штиль 0 20 км {снег} 6/0
[Ci fib]
-38.1 -40.9 75 -38 -38 опасность
обморожения
1006.3 986.5
15 16.12 ЮЗ 1 20 км 8/0
[Ci fib]
-37.2 -40.1 74 -42 -42 опасность
обморожения
1006.2 986.5
18 16.12 штиль 0 20 км 4/0
[Ci fib]
-39.1 -41.8 75 -39 -39 опасность
обморожения
1006.8 986.9
21 16.12 штиль 0 20 км 6/0
[Ci fib]
-39.9 -42.8 74 -40 -40 опасность
обморожения
1007.3 987.3 -41.0 10
00 17.12 штиль 0 20 км 10/0
[Cs]
-37.1 -40.1 73 -37 -37 опасность
обморожения
1007.0 987.3 -40.4
03 17.12 штиль 0 50 км 10/0
[Cs]
-35.8 -38.7 75 -36 -36 опасность
обморожения
1006.7 987.1
06 17.12 штиль 0 20 км 10/0
[Cs]
-35.1 -38.0 75 -35 -35 опасность
обморожения
1006.7 987.2

 

Местоположение метеостанции Верхоянск (Якутия, Россия): широта 67.57 долгота 133.40 высота над уровнем моря 136 м.

В архиве по умолчанию представлена погода в Верхоянске за последнюю неделю. Архивные данные за месяц целиком и за предыдущие месяцы, начиная с января 2011 года, Вы можете получить, выбрав интересующий диапазон дат из раскрывающегося списка и нажав кнопку "Ввод!".


*Определитесь, кто Вы:
робот инопланетянин человек

Внимание! Время в таблицах - всемирное. Для получения местного времени необходимо прибавить поправку, которая в Верхоянске равна 10 ч.

Смотрите также архив погоды в соседних городах и на ближайших метеорологических станциях:

Погода в Батагае (Якутия, Россия) (52 км)
Погода в Екюччю (Якутия, Россия) (118 км)
Погода в Батагай-Алыте (Якутия, Россия) (129 км)
Погода в Усть-Чарках (Якутия, Россия) (162 км)
Погода в Иэме (Якутия, Россия) (274 км)
Погода в Усть-Куйге (Якутия, Россия) (284 км)
Погода в Себян-Кюеле (Якутия, Россия) (294 км)
Погода в Депутатском (Якутия, Россия) (329 км)
Погода в Юбилейной (Якутия, Россия) (373 км)
Погода в Джарджане (Якутия, Россия) (409 км)

Пояснения к столбцам:

Ветер - указаны скорость ветра в м/с - средняя за 10 мин, порывы в срок и между сроками (в фигурных скобках) и направление, откуда дует ветер: С - северный, СВ - северо-восточный, В - восточный, ЮВ - юго-восточный, Ю - южный, ЮЗ - юго-западный, З - западный, СЗ - северо-западный.
Видимость - горизонтальная дальность видимости в метрах или километрах. При видимости от 1 до 10 км при отсутствии осадков обычно наблюдается дымка, при ухудшении видимости до 1 км и менее - туман. В сухую погоду видимость может ухудшаться дымом, пылью или мглою.
Явления - указаны атмосферные явления, наблюдавшиеся в срок или в последний час перед сроком; фигурными скобками обозначены явления, наблюдавшиеся между сроками (за 1-3 часа до срока); квадратными скобками обозначены град или гололедные отложения с указанием их диаметра в мм.
Облачность - указаны через наклонную черту общая и нижняя облачность в баллах и высота нижней границы облаков в метрах; квадратными скобками обозначены формы облаков: Ci - перистые, Cs - перисто-слоистые, Cc - перисто-кучевые, Ac - высококучевые, As - высокослоистые, Sc - слоисто-кучевые, Ns - слоисто-дождевые, Cu - кучевые, Cb - кучево-дождевые. Подробнее классификацию облаков см. в Атласе облаков (PDF).
T - Температура воздуха - температура, измеренная на высоте 2 м над землей.
Td - Температура точки росы - температура, при понижении до которой содержащийся в воздухе водяной пар достигнет насыщения.
f - Относительная влажность воздуха - влажноcть воздуха, измеренная на высоте 2 м над землей.
Te - Эффективная температура - температура, которую ощущает одетый по сезону человек в тени. Характеристика душности погоды. При расчете учитывается влияние влажности воздуха и скорости ветра на теплоощущения человека.
Tes - Эффективная температура на солнце - температура, которую ощущает человек, с поправкой на солнечный нагрев. Характеристика знойности погоды. Зависит от высоты солнца над горизонтом, облачности и скорости ветра. Ночью, в пасмурную погоду, а также при ветре 12 м/с и более поправка равна нулю.
P - Атмосферное давление - приведенное к уровню моря атмосферное давление.
Po - Атмосферное давление - измеренное на уровне метеостанции атмосферное давление.
Tmin - Минимальная температура - минимум температуры воздуха на высоте 2 м над землей.
Tmax - Максимальная температура - максимум температуры воздуха на высоте 2 м над землей.
R - Количество осадков - Количество выпавших осадков за период времени, мм. При наведении курсора мыши на число - период времени, за который выпало указанное количество осадков.
R24 - Количество осадков - Количество выпавших осадков за 24 часа, мм.
S - Снежный покров - Высота снежного покрова, см. При наведении курсора мыши на число - состояние снежного покрова и степень покрытия местности в баллах.